Location: Cutler
(25.6150°N, 80.3110°W)
Time: 03:28:03
(UTC-04:00)

Cosmos 2360 Rocket - Visible Passes

Search period start: 23 August 2014 00:00
Search period end: 02 September 2014 00:00
Orbit: 833 x 847 km, 71.0° (Epoch: 22 August)

Date Brightness Start Highest point End Pass type
(mag) Time Alt. Az. Time Alt. Az. Time Alt. Az.
23 Aug 4.7 05:35:56 10° SE 05:39:48 19° E 05:43:41 10° ENE visible
24 Aug 4.7 05:20:37 10° SE 05:24:15 18° E 05:27:54 10° ENE visible
25 Aug 4.8 05:05:20 10° SE 05:08:42 16° E 05:12:05 10° ENE visible
26 Aug 4.8 04:50:05 10° SE 04:53:09 15° E 04:56:14 10° ENE visible
26 Aug 2.5 06:31:17 10° SW 06:36:39 47° WNW 06:42:03 10° N visible
27 Aug 4.8 04:34:54 10° SE 04:37:37 14° E 04:40:20 10° ENE visible
27 Aug 2.4 06:15:39 10° SW 06:21:04 51° WNW 06:26:32 10° N visible
28 Aug 4.8 04:19:47 10° ESE 04:22:04 13° E 04:24:22 10° ENE visible
28 Aug 2.3 06:00:20 12° SSW 06:05:29 55° WNW 06:11:00 10° N visible
29 Aug 4.8 04:04:48 10° ESE 04:06:32 11° E 04:08:16 10° E visible
29 Aug 2.2 05:46:11 21° SW 05:49:54 59° WNW 05:55:27 10° N visible
30 Aug 4.9 03:50:10 10° ESE 03:50:59 10° E 03:51:48 10° E visible
30 Aug 2.1 05:31:55 34° SW 05:34:19 64° WNW 05:39:54 10° N visible
31 Aug 2.1 05:17:33 53° SW 05:18:44 70° WNW 05:24:21 10° NNE visible
01 Sep 2.0 05:03:06 75° W 05:03:10 75° WNW 05:08:48 10° NNE visible
